Tracking 29892 objects as of 21-Nov-2024
HD Live streaming from Space Station
objects crossing your sky now

STARLINK-11154

Track STARLINK-11154 now!
10-day predictions
STARLINK-11154 is classified as:


NORAD ID: 61059
Int'l Code: 2024-164K
Perigee: 366.4 km
Apogee: 367.2 km
Inclination: 53.2 °
Period: 91.7 minutes
Semi major axis: 6737 km
RCS: Unknown
Launch date: September 13, 2024
Source: United States (US)
Launch site: AIR FORCE WESTERN TEST RANGE (AFWTR)
Your satellite tracking list
Your tracking list is empty




NASA's NSSDC Master Catalog

Two Line Element Set (TLE):
1 61059U 24164K   24325.85023727 -.00002176  00000-0 -13106-4 0  9991
2 61059  53.1577 127.3774 0000602  31.0407 329.0647 15.69723550 12024
Source of the keplerian elements: AFSPC